Menu

ASI In-Person Safety Seminars

Air Safety Institute Logo

Welcome

Join other pilots for comradery and increase your safety knowledge.

Registration is not required to attend, but we do encourage it. When you RSVP, you will be able to have the opportunity to add to your online event calendar.

Make it Personal

Aviation Safety:  Make it Personal

A look at safety trends in GA and discussion on ideas to: develop a culture that surrounds our individual flying environments; help us adopt the right mindset for each flight we take; develop techniques to work on skills specific to our individual type of flying; and enhance our decision making to avoid common risk areas.

Location Start Time End Time State Latitude Longitude cssIndex Topic cssIndex
Norman, OK 09-09-2017 9:00 AM 09-09-2017 9:45 AM Learn More Oklahoma 0E-15 0E-15 1 mtgMakeitPersonal SSMAKEIT_OK_170909

IFR Decision Making

IFR Decision Making:  Chasing Choices

Processing information and making clear decisions while flying in IMC can be challenging.  In this seminar we'll analyze accident scenarios where stress and confusion in IMC can lead to task saturation, problematic choices, and suboptimal decisions.

Location Start Time End Time State Latitude Longitude cssIndex Topic cssIndex
Norman, OK 09-09-2017 10:00 AM 09-09-2017 10:45 AM Learn More Oklahoma 0E-15 0E-15 2 mtgIFRDecisionMaking SSIFR_OK_170909

Takeoff Surprise

The Takeoff Surprise: Preparing for the Unexpected

Takeoff is often the place where problems are confusing and difficult to analyze, and reaction time is short.  In this seminar we'll analyze takeoff accident scenarios and the limited information they offer while deciding a safe course of action.

Location Start Time End Time State Latitude Longitude cssIndex Topic cssIndex
Norman, OK 09-09-2017 12:00 PM 09-09-2017 12:45 PM Learn More Oklahoma 0E-15 0E-15 3 mtgTakeoffSurprise SSTAKEOFF_OK_170909

Fly by Night

Fly by Night

Especially in light aircraft, flying after dark comes with real trade-offs. Smooth air, better performance, and stunning views are great—but they’re offset by trickier landings, invisible terrain, and limited emergency options. So what’s the key to staying safe after sundown?

ASI’s new seminar looks at night flying from a risk management perspective. Using decades of accident data, we identify common problems and recommend the best ways to avoid them. Along the way, we talk about:

  • Requirements for pilots and aircraft
  • Unique flight planning considerations
  • Why all nights are not created equal
  • Things that can take you by surprise

Location Start Time End Time State Latitude Longitude cssIndex Topic cssIndex
Houston, TX 09-11-2017 7:00 PM 09-11-2017 9:00 PM Learn More Texas 0E-15 0E-15 4 mtgFlybyNight SSFLY_TX_170911
Butler, PA 09-11-2017 7:00 PM 09-11-2017 9:00 PM Learn More Pennsylvania 40.779406000000000 -79.952066000000000 4 mtgFlybyNight SSFLY_PA_170911
Seattle, WA Special Aviation Location 09-11-2017 7:00 PM 09-11-2017 9:00 PM Learn More Washington 47.518352000000000 -122.297554000000000 4 mtgFlybyNight SSFLY_WA_170911
Jacksonville, FL 09-11-2017 7:00 PM 09-11-2017 9:00 PM Learn More Florida 30.251253000000000 -81.591904000000000 4 mtgFlybyNight SSFLY_FL_170911
Daytona Beach, FL 09-12-2017 5:30 PM 09-12-2017 7:30 PM Learn More Florida 29.192224000000000 -81.050670000000000 4 mtgFlybyNight SSFLY_FL_170912
Wichita, KS Special Aviation Location Fly to this Location 09-12-2017 7:00 PM 09-12-2017 9:00 PM Learn More Kansas 37.656569000000000 -97.425559000000000 4 mtgFlybyNight SSFLY_KS_170912
Houston, TX 09-12-2017 7:00 PM 09-12-2017 9:00 PM Learn More Texas 29.787817000000000 -95.643658000000000 4 mtgFlybyNight SSFLY_TX_170912
Harrisburg, PA 09-12-2017 7:00 PM 09-12-2017 9:00 PM Learn More Pennsylvania 40.242900000000000 -76.801500000000000 4 mtgFlybyNight SSFLY_PA_170912
Burlington, WA 09-12-2017 7:00 PM 09-12-2017 9:00 PM Learn More Washington 48.463190000000000 -122.421733000000000 4 mtgFlybyNight SSFLY_WA_170912
Oklahoma City, OK Special Aviation Location Fly to this Location 09-13-2017 7:00 PM 09-13-2017 9:00 PM Learn More Oklahoma 35.540679000000000 -97.636879000000000 4 mtgFlybyNight SSFLY_OK_170913
San Antonio, TX 09-13-2017 7:00 PM 09-13-2017 9:00 PM Learn More Texas 29.520264000000000 -98.492419000000000 4 mtgFlybyNight SSFLY_TX_170913
Bethlehem, PA 09-13-2017 7:00 PM 09-13-2017 9:00 PM Learn More Pennsylvania 40.664664000000000 -75.382485000000000 4 mtgFlybyNight SSFLY_PA_170913
Portland, OR 09-13-2017 7:00 PM 09-13-2017 9:00 PM Learn More Oregon 45.582800000000000 -122.576200000000000 4 mtgFlybyNight SSFLY_OR_170913
Melbourne, FL 09-13-2017 7:00 PM 09-13-2017 9:00 PM Learn More Florida 28.127800000000000 -80.578100000000000 4 mtgFlybyNight SSFLY_FL_170913
Rogers, AR Special Aviation Location Fly to this Location 09-14-2017 7:00 PM 09-14-2017 9:00 PM Learn More Arkansas 36.370622000000000 -94.103776000000000 4 mtgFlybyNight SSFLY_AR_170914
Austin, TX 09-14-2017 7:00 PM 09-14-2017 9:00 PM Learn More Texas 30.208032000000000 -97.755809000000000 4 mtgFlybyNight SSFLY_TX_170914
King Of Prussia, PA 09-14-2017 7:00 PM 09-14-2017 9:00 PM Learn More Pennsylvania 40.089306000000000 -75.388475000000000 4 mtgFlybyNight SSFLY_PA_170914
Eugene, OR 09-14-2017 7:00 PM 09-14-2017 9:00 PM Learn More Oregon 44.070150000000000 -123.103810000000000 4 mtgFlybyNight SSFLY_OR_170914
Ocala, FL 09-14-2017 7:00 PM 09-14-2017 9:00 PM Learn More Florida 29.150767000000000 -82.182562000000000 4 mtgFlybyNight SSFLY_FL_170914
Madison, WI 09-18-2017 7:00 PM 09-18-2017 9:00 PM Learn More Wisconsin 43.139055000000000 -89.325656000000000 4 mtgFlybyNight SSFLY_WI_170918
Salt Lake Cty, UT 09-18-2017 7:00 PM 09-18-2017 9:00 PM Learn More Utah 40.769209000000000 -111.897373000000000 4 mtgFlybyNight SSFLY_UT_170918
Racine, WI 09-19-2017 7:00 PM 09-19-2017 9:00 PM Learn More Wisconsin 42.759067000000000 -87.821521000000000 4 mtgFlybyNight SSFLY_WI_170919
Green Bay, WI 09-20-2017 7:00 PM 09-20-2017 9:00 PM Learn More Wisconsin 44.496577000000000 -88.114470000000000 4 mtgFlybyNight SSFLY_WI_170920
Reno, NV 09-25-2017 7:00 PM 09-25-2017 9:00 PM Learn More Nevada 39.489013000000000 -119.794833000000000 4 mtgFlybyNight SSFLY_NV_170925
Hasbrouck Heights, NJ 09-25-2017 7:00 PM 09-25-2017 9:00 PM Learn More New Jersey 40.860417000000000 -74.069383700000000 4 mtgFlybyNight SSFLY_NJ_170925
Northbrook, IL 09-25-2017 7:00 PM 09-25-2017 9:00 PM Learn More Illinois 42.100515000000000 -87.882917000000000 4 mtgFlybyNight SSFLY_IL_170925
Sacramento, CA 09-26-2017 7:00 PM 09-26-2017 9:00 PM Learn More California 38.600554000000000 -121.431605000000000 4 mtgFlybyNight SSFLY_CA_170926
Hartford, CT 09-26-2017 7:00 PM 09-26-2017 9:00 PM Learn More Connecticut 41.769923000000000 -72.673566000000000 4 mtgFlybyNight SSFLY_CT_170926
Lisle, IL 09-26-2017 7:00 PM 09-26-2017 9:00 PM Learn More Illinois 41.808006000000000 -88.109355000000000 4 mtgFlybyNight SSFLY_IL_170926
Milpitas, CA 09-27-2017 7:00 PM 09-27-2017 9:00 PM Learn More California 37.434131000000000 -121.891969000000000 4 mtgFlybyNight SSFLY_CA_170927
Waltham, MA 09-27-2017 7:00 PM 09-27-2017 9:00 PM Learn More Massachusetts 42.397108000000000 -71.255421000000000 4 mtgFlybyNight SSFLY_MA_170927
East Peoria, IL 09-27-2017 7:00 PM 09-27-2017 9:00 PM Learn More Illinois 40.683300000000000 -89.590200000000000 4 mtgFlybyNight SSFLY_IL_170927
Santa Rosa, CA 09-28-2017 7:00 PM 09-28-2017 9:00 PM Learn More California 38.449800000000000 -122.688700000000000 4 mtgFlybyNight SSFLY_CA_170928
Manchester, NH 09-28-2017 7:00 PM 09-28-2017 9:00 PM Learn More New Hampshire 42.935960000000000 -71.413296000000000 4 mtgFlybyNight SSFLY_NH_170928
Rockford, IL 09-28-2017 7:00 PM 09-28-2017 9:00 PM Learn More Illinois 42.270690000000000 -88.969063000000000 4 mtgFlybyNight SSFLY_IL_170928
Tampa, FL 10-02-2017 7:00 PM 10-02-2017 9:00 PM Learn More Florida 27.945005000000000 -82.532773000000000 4 mtgFlybyNight SSFLY_FL_171002
Ypsilanti, MI 10-03-2017 7:00 PM 10-03-2017 9:00 PM Learn More Michigan 42.223004000000000 -83.617762000000000 4 mtgFlybyNight SSFLY_MI_171002
Independence, OH 10-03-2017 7:00 PM 10-03-2017 9:00 PM Learn More Ohio 41.396766000000000 -81.653329000000000 4 mtgFlybyNight SSFLY_OH_171003
Fort Myers, FL 10-03-2017 7:00 PM 10-03-2017 9:00 PM Learn More Florida 26.550659000000000 -81.868620000000000 4 mtgFlybyNight SSFLY_FL_171003
Ft Worth, TX 10-03-2017 7:00 PM 10-03-2017 9:00 PM Learn More Texas 32.824143000000000 -97.312567000000000 4 mtgFlybyNight SSFLY_TX_171003
Columbus, OH 10-04-2017 7:00 PM 10-04-2017 9:00 PM Learn More Ohio 40.099986000000000 -82.987384000000000 4 mtgFlybyNight SSFLY_OH_171004
Hollywood, FL 10-04-2017 7:00 PM 10-04-2017 9:00 PM Learn More Florida 26.033572000000000 -80.166006000000000 4 mtgFlybyNight SSFLY_FL_171004
Addison, TX 10-04-2017 7:00 PM 10-04-2017 9:00 PM Learn More Texas 32.962206000000000 -96.829706000000000 4 mtgFlybyNight SSFLY_TX_171004
Batavia, OH 10-05-2017 7:00 PM 10-05-2017 9:00 PM Learn More Ohio 39.073244000000000 -84.213867000000000 4 mtgFlybyNight SSFLY_OH_171005
Mesa, AZ 10-09-2017 7:00 PM 10-09-2017 9:00 PM Learn More Arizona 33.385852000000000 -111.840262000000000 4 mtgFlybyNight SSFLY_AZ_171009
Murray, KY Special Aviation Location Fly to this Location 10-09-2017 7:00 PM 10-09-2017 9:00 PM Learn More Kentucky 36.663769000000000 -88.369134000000000 4 mtgFlybyNight SSFLY_KY_171009
Eau Claire, WI 10-10-2017 6:00 PM 10-10-2017 8:00 PM Learn More Wisconsin 44.862355000000000 -91.478561000000000 4 mtgFlybyNight SSFLY_WI_171010
Tucson, AZ 10-10-2017 7:00 PM 10-10-2017 9:00 PM Learn More Arizona 32.250805000000000 -110.882992000000000 4 mtgFlybyNight SSFLY_AZ_171010
Germantown, TN 10-10-2017 7:00 PM 10-10-2017 9:00 PM Learn More Tennessee 35.096980000000000 -89.806730000000000 4 mtgFlybyNight SSFLY_TN_171010
Mount Sterling, KY 10-10-2017 7:00 PM 10-10-2017 9:00 PM Learn More Kentucky 38.055204000000000 -83.983433000000000 4 mtgFlybyNight SSFLY_KY_171010
Nashville, TN 10-11-2017 7:00 PM 10-11-2017 9:00 PM Learn More Tennessee 36.147948000000000 -86.691891000000000 4 mtgFlybyNight SSFLY_TN_171011
Frederick, MD 10-11-2017 7:00 PM 10-11-2017 9:00 PM Learn More Maryland 39.410557000000000 -77.383394000000000 4 mtgFlybyNight SSFLY_MD_171011
Northglenn, CO 10-11-2017 7:00 PM 10-11-2017 9:00 PM Learn More Colorado 39.913847000000000 -104.987451000000000 4 mtgFlybyNight SSFLY_CO_171011
Blaine, MN 10-11-2017 7:00 PM 10-11-2017 9:00 PM Learn More Minnesota 45.141822000000000 -93.216500000000000 4 mtgFlybyNight SSFLY_MN_171011
Albuquerque, NM 10-12-2017 7:00 PM 10-12-2017 9:00 PM Learn More New Mexico 35.050136000000000 -106.621906000000000 4 mtgFlybyNight SSFLY_NM_171012
Maryville, TN 10-12-2017 7:00 PM 10-12-2017 9:00 PM Learn More Tennessee 35.810700000000000 -83.946500000000000 4 mtgFlybyNight SSFLY_TN_171012
Colorado Springs, CO 10-12-2017 7:00 PM 10-12-2017 9:00 PM Learn More Colorado 38.796367000000000 -104.795605000000000 4 mtgFlybyNight SSFLY_CO_171012
Dodge Center, MN 10-12-2017 7:00 PM 10-12-2017 9:00 PM Learn More Minnesota 44.015900000000000 -92.838800000000000 4 mtgFlybyNight SSFLY_MN_171012
, Special Aviation Location 10-16-2017 7:00 PM 10-16-2017 9:00 PM Learn More 4 mtgFlybyNight SSFLY_NY_171016
Poughkeepsie, NY 10-17-2017 7:00 PM 10-17-2017 9:00 PM Learn More New York 41.705856000000000 -73.928393000000000 4 mtgFlybyNight SSFLY_NY_171017
Albany, NY 10-18-2017 7:00 PM 10-18-2017 9:00 PM Learn More New York 42.723226000000000 -73.800565000000000 4 mtgFlybyNight SSFLY_NY_171018
Milan, IL Special Aviation Location 10-19-2017 6:00 PM 10-19-2017 8:00 PM Learn More Illinois 41.453000000000000 -90.527700000000000 4 mtgFlybyNight SSFLY_IL_171019
, Special Aviation Location 10-19-2017 7:00 PM 10-19-2017 9:00 PM Learn More 4 mtgFlybyNight SSFLY_NY_171019
Cedar Rapids, IA 10-23-2017 7:00 PM 10-23-2017 9:00 PM Learn More Iowa 41.943505000000000 -91.673920000000000 4 mtgFlybyNight SSFLY_IA_171023
Van Nuys, CA 10-23-2017 7:00 PM 10-23-2017 9:00 PM Learn More California 34.207661000000000 -118.486048000000000 4 mtgFlybyNight SSFLY_CA_171023
Zionsville, IN Special Aviation Location Fly to this Location 10-24-2017 6:00 PM 10-24-2017 8:00 PM Learn More Indiana 40.041263000000000 -86.253871000000000 4 mtgFlybyNight SSFLY_IN_171024
West Des Moines, IA 10-24-2017 7:00 PM 10-24-2017 9:00 PM Learn More Iowa 41.559400000000000 -93.792600000000000 4 mtgFlybyNight SSFLY_IA_171024
Ontario, CA 10-24-2017 7:00 PM 10-24-2017 9:00 PM Learn More California 34.065013000000000 -117.610812000000000 4 mtgFlybyNight SSFLY_CA_171024
West Lafayette, IN Special Aviation Location 10-25-2017 7:00 PM 10-25-2017 9:00 PM Learn More Indiana 40.425608000000000 -86.915064000000000 4 mtgFlybyNight SSFLY_IN_171025
Bellevue, NE 10-25-2017 7:00 PM 10-25-2017 9:00 PM Learn More Nebraska 41.161771000000000 -95.934672000000000 4 mtgFlybyNight SSFLY_NE_171025
Costa Mesa, CA 10-25-2017 7:00 PM 10-25-2017 9:00 PM Learn More California 33.685262000000000 -117.885804000000000 4 mtgFlybyNight SSFLY_CA_171025
, 10-26-2017 7:00 PM 10-26-2017 9:00 PM Learn More 4 mtgFlybyNight SSFLY_KS_171026
San Diego, CA 10-26-2017 7:00 PM 10-26-2017 9:00 PM Learn More California 32.758909000000000 -117.179693000000000 4 mtgFlybyNight SSFLY_CA_171026
Greenville, SC 10-30-2017 7:00 PM 10-30-2017 9:00 PM Learn More South Carolina 34.864515000000000 -82.258605000000000 4 mtgFlybyNight SSFLY_SC_171030
Monroe, NC 10-30-2017 7:00 PM 10-30-2017 9:00 PM Learn More North Carolina 35.032456000000000 -80.620515000000000 4 mtgFlybyNight SSFLY_NC_171030
Atlanta, GA 10-31-2017 7:00 PM 10-31-2017 9:00 PM Learn More Georgia 33.659231000000000 -84.432810000000000 4 mtgFlybyNight SSFLY_GA_171031
Fletcher, NC 10-31-2017 7:00 PM 10-31-2017 9:00 PM Learn More North Carolina 0E-15 0E-15 4 mtgFlybyNight SSFLY_NC_171031
Huntsville, AL 11-01-2017 7:00 PM 11-01-2017 9:00 PM Learn More Alabama 34.727744000000000 -86.589544000000000 4 mtgFlybyNight SSFLY_AL_171101
Greensboro, NC 11-01-2017 7:00 PM 11-01-2017 9:00 PM Learn More North Carolina 36.094387000000000 -79.915961000000000 4 mtgFlybyNight SSFLY_NC_171101
Concord, CA 11-01-2017 7:00 PM 11-01-2017 9:00 PM Learn More California 37.984721000000000 -122.054909000000000 4 mtgFlybyNight SSFLY_CA_171101
Morrisville, NC Special Aviation Location Fly to this Location 11-02-2017 7:00 PM 11-02-2017 9:00 PM Learn More North Carolina 35.853500000000000 -78.831500000000000 4 mtgFlybyNight SSFLY_NC_171102
Fresno, CA 11-08-2017 7:00 PM 11-08-2017 9:00 PM Learn More California 36.731740000000000 -119.783435000000000 4 mtgFlybyNight SSFLY_CA_171108

Nontowered Case Studies

Nontowered Case Studies: What Went Wrong?

Flying at nontowered fields is a balancing act. Especially on busy days, it demands concentration, communication, sharp eyes, solid stick-and-rudder skills, and the ability to improvise at a moment’s notice. Sometimes the margin for error can be very slim.

With that in mind, ASI’s new seminar turns a spotlight on real-life accidents in the nontowered environment. Together with our expert presenters, you’ll play the role of accident investigator—starting at the crash scene and working backwards through physical evidence, eyewitness testimony, and other leads to figure out what went wrong, and why.

Location Start Time End Time State Latitude Longitude cssIndex Topic cssIndex
Idaho Falls, ID 09-19-2017 7:00 PM 09-19-2017 9:00 PM Learn More Idaho 43.511000000000000 -112.072300000000000 5 mtgNontoweredCaseStudies SSNONT_ID_170919
Boise, ID 09-20-2017 7:00 PM 09-20-2017 9:00 PM Learn More Idaho 43.619893000000000 -116.235125000000000 5 mtgNontoweredCaseStudies SSNONT_ID_170920

Questions? Contact us at [email protected] or 800/USA-AOPA (800/872-2672)
Monday - Friday, 8:30 am - 6:00 pm ET